Flag for Slovenia Weather past 2 weeks in Ljubljana, Slovenia

Now
60 °F

Cool.


Feels Like: 60 °F
Forecast: 49 / 68 °F
Wind: 1 mph from Southwest

Location: Ljubljana / Bezigrad

Current Time: Oct 1, 2014 at 12:27:50 AM

Latest Report: Sep 30, 2014 at 11:00 PM


Visibility: N/A

Pressure: 30.27 "Hg

Humidity: 85%

Dew point: 56 °F

Location of LjubljanaLocation

Historic Weather in Ljubljana — Graph

°F

Ljubljana temperature yesterday

Maximum temperature yesterday: 77 °F (at 3:00 PM)
Minimum temperature yesterday: 50 °F (at 7:00 AM)
Average temperature yesterday: 62 °F

Past Weeks' High & Low Weather Summary

 TemperatureHumidityPressure
High80 °F (Sep 21, 3:00 PM)100% (Sep 17, 9:00 AM)30.42 "Hg (Sep 17, 9:00 AM)
Low46 °F (Sep 26, 7:00 AM)39% (Sep 23, 3:00 PM)29.81 "Hg (Sep 22, 3:00 PM)
Average60 °F81%30.12 "Hg
* Reported Sep 15 10:00 PM — Sep 30 10:00 PM, Ljubljana, Weather by CustomWeather, © 2014

Note: Actual official high and low records may vary slightly from our data, if they occured in-between our weather recording intervals... More about our weather records

Advertising

Ljubljana weather history for previous 24 hours

 ConditionsComfort  
Time TempWeatherWind HumidityBarometerVisibility
10:00 PM
Sep 30
61 °FPassing clouds.1 mph82%30.27 "Hg16 mi
9:00 PM64 °FPassing clouds.2 mph76%30.27 "Hg16 mi
8:00 PM65 °FPassing clouds.3 mph73%30.26 "Hg19 mi
7:00 PM68 °FPassing clouds.2 mph66%30.24 "Hg19 mi
6:00 PM71 °FSunny.2 mph58%30.22 "Hg19 mi
5:00 PM76 °FPassing clouds.2 mph50%30.22 "Hg19 mi
4:00 PM76 °FMild.2 mph51%30.23 "HgN/A
3:00 PM77 °FMild.2 mph50%30.23 "HgN/A
2:00 PM75 °FPassing clouds.1 mph51%30.25 "Hg16 mi
1:00 PM72 °FSunny.1 mph59%30.27 "Hg16 mi
12:00 PM67 °FSunny.2 mph68%30.29 "Hg16 mi
11:00 AM63 °FPassing clouds.2 mph76%30.30 "Hg16 mi
10:00 AM56 °FCool.1 mph91%30.32 "HgN/A
9:00 AM52 °FFog.2 mph97%30.32 "Hg1 mi
8:00 AM50 °FFog.1 mph99%30.32 "Hg0 mi
7:00 AM50 °FFog.1 mph97%30.32 "Hg4 mi
6:00 AM50 °FFog.1 mph97%30.31 "Hg2 mi
5:00 AM51 °FClear.1 mph95%30.31 "Hg6 mi
4:00 AM52 °FCool.1 mph95%30.32 "HgN/A
3:00 AM54 °FCool.1 mph95%30.31 "HgN/A
2:00 AM55 °FCool.1 mph90%30.31 "HgN/A
1:00 AM59 °FCool.1 mph82%30.30 "HgN/A
12:00 AM60 °FCool.1 mph82%30.31 "HgN/A
Weather by CustomWeather, © 2014

See weather overviewHow to use our weather pages